Location: Pace/Milton
(30.6162°N, 87.1503°W)
Time: 11:39:32
(UTC-06:00)

Hubble Space Telescope - Pass Details

Date: 01 December 2021
Orbit: 534 x 538 km, 28.5° (Epoch: 18 January)

Event Time Altitude Azimuth Distance (km) Brightness Sun altitude
Exits shadow 04:24:26 47° 130° (SE) 709 1.6 -26.1°
Drops below altitude 10° 04:27:34 10° 104° (ESE) 1,774 4.5 -25.5°
Sets 04:29:50 0° 101° (E) 2,665 5.7 -25.0°
